Weather History for Nuiqsut, AK

Change the Weather History Date:

Tuesday, October 11, 2011

  Actual Average (PAKU) Record (PAKU)
Temperature  
Mean Temperature 26 °F -  
Max Temperature 28 °F 21 °F 38 °F (1993)
Min Temperature 23 °F 14 °F -14 °F (1996)
Degree Days  
Heating Degree Days 40    
Moisture  
Dew Point 24 °F    
Average Humidity 90    
Maximum Humidity 96    
Minimum Humidity 78    
Precipitation  
Precipitation 0.00 in - - ()
Sea Level Pressure  
Sea Level Pressure 30.03 in    
Wind  
Wind Speed 8 mph (NE)    
Max Wind Speed 15 mph    
Max Gust Speed -    
Averages and records for this station are not official NWS values.
T = Trace of Precipitation, MM = Missing Value Source: NWS Daily Summary

Daily Weather History Graph

Daily Weather History Graph

Search for Another Location

Airport:

Trip Planner

Search our weather history database for the weather conditions in past years. The results will help you decide how hot, cold, wet, or windy it might be!

Date:

Astronomy

Oct. 11, 2011 Rise Set
Actual Time 9:00 AM AKDT 6:38 PM AKDT
Civil Twilight 7:58 AM AKDT 7:41 PM AKDT
Nautical Twilight 6:46 AM AKDT 8:52 PM AKDT
Astronomical Twilight 5:29 AM AKDT 10:08 PM AKDT
Moon 5:32 PM AKDT (10/11) 9:20 AM AKDT (10/11)
Length of Visible Light 11h 42m
Length of Day
9h 37m
Full, 100% of the Moon is Illuminated
Oct 11
Full
Oct 11
Full
Oct 19
Last Quarter
Oct 26
New
Nov 2
First Quarter

Hourly Weather History & Observations

Time (AKDT) Temp. Windchill Dew Point Humidity Pressure Visibility Wind Dir Wind Speed Gust Speed Precip Events Conditions
12:34 AM 26.6 °F 17.5 °F 24.8 °F 93% 30.03 in - NNE 9.2 mph - N/A   Overcast
12:53 AM 27.0 °F 18.7 °F 24.1 °F 89% 30.04 in - North 8.1 mph - N/A   Overcast
1:54 AM 26.1 °F 17.6 °F 25.0 °F 96% 30.04 in - NE 8.1 mph - 0.00 in Snow Light Snow
2:12 AM 26.6 °F 20.0 °F 24.8 °F 93% 30.03 in - NE 5.8 mph - 0.00 in   Overcast
2:53 AM 26.1 °F 14.0 °F 23.0 °F 88% 30.03 in - NE 15.0 mph - 0.00 in   Overcast
3:53 AM 26.1 °F 15.6 °F 24.1 °F 92% 30.02 in - NNE 11.5 mph - 0.00 in   Overcast
4:00 AM 26.6 °F 15.7 °F 24.8 °F 93% 30.02 in - NNE 12.7 mph - 0.00 in Snow Light Snow
4:53 AM 26.1 °F 15.6 °F 24.1 °F 92% 30.02 in - North 11.5 mph - 0.00 in   Overcast
5:53 AM 26.1 °F 18.4 °F 24.1 °F 92% 30.02 in - NNE 6.9 mph - 0.00 in   Overcast
6:53 AM 23.0 °F 14.7 °F 21.0 °F 92% 30.02 in - North 6.9 mph - N/A   Overcast
7:17 AM 23.0 °F 14.7 °F 21.2 °F 93% 30.02 in - North 6.9 mph - N/A   Overcast
7:53 AM 24.1 °F 17.0 °F 21.9 °F 91% 30.02 in - North 5.8 mph - N/A   Overcast
8:17 AM 24.8 °F 17.9 °F 21.2 °F 86% 30.02 in - North 5.8 mph - N/A   Overcast
8:24 AM 24.8 °F 19.1 °F 21.2 °F 86% 30.02 in - North 4.6 mph - N/A   Overcast
8:53 AM 24.1 °F 17.0 °F 21.9 °F 91% 30.03 in - North 5.8 mph - N/A   Overcast
9:33 AM 24.8 °F 16.9 °F 23.0 °F 93% 30.02 in - NNE 6.9 mph - N/A   Overcast
9:53 AM 26.1 °F 18.4 °F 24.1 °F 92% 30.03 in - NNE 6.9 mph - N/A   Overcast
10:53 AM 28.0 °F 21.7 °F 27.0 °F 96% 30.03 in - NE 5.8 mph - N/A   Overcast
11:53 AM 28.9 °F 20.4 °F 27.0 °F 92% 30.03 in - ENE 9.2 mph - N/A   Overcast
12:53 PM 28.9 °F 21.1 °F 27.0 °F 92% 30.04 in - ENE 8.1 mph - N/A   Overcast
1:53 PM 28.9 °F 21.9 °F 26.1 °F 89% 30.05 in - ENE 6.9 mph - N/A   Overcast
2:53 PM 28.9 °F 21.1 °F 25.0 °F 85% 30.05 in - NE 8.1 mph - N/A   Overcast
3:14 PM 28.4 °F 21.2 °F 24.8 °F 86% 30.04 in - NE 6.9 mph - N/A   Overcast
3:53 PM 28.9 °F 21.1 °F 24.1 °F 82% 30.04 in - ENE 8.1 mph - N/A   Overcast
4:53 PM 28.0 °F 20.8 °F 21.9 °F 78% 30.04 in - NE 6.9 mph - N/A   Overcast
5:43 PM 28.4 °F 22.2 °F 23.0 °F 80% 30.03 in - NE 5.8 mph - N/A   Overcast
5:53 PM 28.0 °F 22.8 °F 23.0 °F 81% 30.04 in - ENE 4.6 mph - N/A   Overcast
6:53 PM 27.0 °F - 25.0 °F 92% 30.04 in - Calm Calm - N/A   Overcast
7:32 PM 26.6 °F 21.2 °F 24.8 °F 93% 30.04 in - NE 4.6 mph - N/A   Overcast
7:53 PM 27.0 °F 23.0 °F 26.1 °F 96% 30.04 in - NNE 3.5 mph - N/A   Overcast
8:53 PM 28.0 °F 20.0 °F 27.0 °F 96% 30.04 in - NE 8.1 mph - 0.00 in   Overcast
9:26 PM 28.4 °F 18.5 °F 26.6 °F 93% 30.04 in - East 11.5 mph - 0.00 in   Overcast
9:53 PM 27.0 °F 16.1 °F 25.0 °F 92% 30.04 in - East 12.7 mph - 0.00 in   Overcast
10:53 PM 27.0 °F 16.1 °F 25.0 °F 92% 30.05 in - East 12.7 mph - N/A   Overcast
11:42 PM 26.6 °F 16.2 °F 24.8 °F 93% 30.05 in - ESE 11.5 mph - N/A   Overcast
11:53 PM 27.0 °F 17.3 °F 24.1 °F 89% 30.05 in - ESE 10.4 mph - N/A   Overcast